| time (UTC) | temp F | wind direction | speed MPH | gust MPH | rain 1hr in | rain 24hr in | rain mn in | humidity % | barometer mb |
| 20260509175010 | 44 | 360 | 2.0 | 8.0 | 0.09 | 0.12 | 0.12 | 91 | 1016.1 |
| 20260509174529 | 44 | 147 | 3.0 | 8.0 | 0.09 | 0.11 | 0.11 | 90 | 1016.3 |
| 20260509174014 | 44 | 360 | 2.0 | 8.0 | 0.08 | 0.10 | 0.10 | 90 | 1016.3 |
| 20260509173515 | 44 | 360 | 2.0 | 10.0 | 0.07 | 0.09 | 0.09 | 90 | 1016.1 |
| 20260509173034 | 44 | 360 | 1.0 | 10.0 | 0.07 | 0.08 | 0.08 | 90 | 1016.1 |
| 20260509172518 | 44 | 360 | 7.0 | 10.0 | 0.06 | 0.07 | 0.07 | 88 | 1015.9 |
| 20260509172014 | 45 | 360 | 2.0 | 10.0 | 0.05 | 0.06 | 0.06 | 88 | 1016.1 |
| 20260509171537 | 45 | 360 | 5.0 | 10.0 | 0.04 | 0.05 | 0.05 | 87 | 1016.0 |
| 20260509171011 | 46 | 360 | 2.0 | 10.0 | 0.05 | 0.05 | 0.05 | 87 | 1016.1 |
| 20260509170512 | 46 | 360 | 5.0 | 10.0 | 0.04 | 0.04 | 0.04 | 86 | 1016.0 |
| 20260509170032 | 47 | 360 | 3.0 | 8.0 | 0.03 | 0.03 | 0.03 | 85 | 1016.0 |
| 20260509165512 | 47 | 0 | 1.0 | 4.0 | 0.03 | 0.03 | 0.03 | 85 | 1016.0 |
| 20260509165013 | 47 | 360 | 0.0 | 4.0 | 0.03 | 0.03 | 0.03 | 83 | 1016.0 |
| 20260509164531 | 47 | 0 | 0.0 | 4.0 | 0.02 | 0.02 | 0.02 | 83 | 1016.1 |
| 20260509164011 | 47 | 360 | 2.0 | 6.0 | 0.02 | 0.02 | 0.02 | 81 | 1016.1 |
| 20260509163510 | 47 | 360 | 2.0 | 6.0 | 0.01 | 0.01 | 0.01 | 80 | 1016.3 |
| 20260509163033 | 48 | 176 | 0.0 | 4.0 | 0.01 | 0.01 | 0.01 | 81 | 1016.3 |
| 20260509162514 | 48 | 0 | 0.0 | 4.0 | 0.01 | 0.01 | 0.01 | 80 | 1016.3 |
| 20260509162011 | 48 | 213 | 2.0 | 8.0 | 0.01 | 0.01 | 0.01 | 79 | 1016.3 |
| 20260509161530 | 48 | 234 | 1.0 | 8.0 | 0.00 | 0.00 | 0.00 | 77 | 1016.4 |
| 20260509161013 | 48 | 208 | 3.0 | 8.0 | 0.00 | 0.00 | 0.00 | 77 | 1016.5 |
| 20260509160515 | 48 | 216 | 1.0 | 8.0 | 0.00 | 0.00 | 0.00 | 76 | 1016.5 |
| 20260509160035 | 49 | 209 | 1.0 | 8.0 | 0.00 | 0.00 | 0.00 | 73 | 1016.5 |
| 20260509155511 | 49 | 194 | 1.0 | 8.0 | 0.00 | 0.00 | 0.00 | 71 | 1016.5 |
| 20260509155010 | 49 | 171 | 2.0 | 8.0 | 0.00 | 0.00 | 0.00 | 70 | 1016.5 |
| 20260509154531 | 49 | 0 | 2.0 | 9.0 | 0.00 | 0.00 | 0.00 | 68 | 1016.6 |
| 20260509154014 | 49 | 0 | 1.0 | 10.0 | 0.00 | 0.00 | 0.00 | 68 | 1016.6 |
| 20260509153510 | 49 | 200 | 4.0 | 10.0 | 0.00 | 0.00 | 0.00 | 66 | 1016.6 |
| 20260509153049 | 49 | 246 | 3.0 | 11.0 | 0.00 | 0.00 | 0.00 | 65 | 1016.6 |
| 20260509152511 | 50 | 360 | 3.0 | 11.0 | 0.00 | 0.00 | 0.00 | 65 | 1016.7 |
| 20260509152012 | 50 | 183 | 4.0 | 13.0 | 0.00 | 0.00 | 0.00 | 63 | 1016.7 |
| 20260509151530 | 50 | 225 | 5.0 | 23.0 | 0.00 | 0.00 | 0.00 | 59 | 1016.6 |
| 20260509151010 | 51 | 360 | 4.0 | 23.0 | 0.00 | 0.00 | 0.00 | 58 | 1016.6 |
| 20260509150514 | 52 | 205 | 10.0 | 23.0 | 0.00 | 0.00 | 0.00 | 54 | 1016.6 |
| 20260509150030 | 52 | 360 | 3.0 | 17.0 | 0.00 | 0.00 | 0.00 | 51 | 1016.5 |
| 20260509145512 | 52 | 360 | 9.0 | 18.0 | 0.00 | 0.00 | 0.00 | 50 | 1016.4 |
| 20260509145012 | 52 | 193 | 7.0 | 18.0 | 0.00 | 0.00 | 0.00 | 48 | 1016.3 |
| 20260509144529 | 53 | 360 | 7.0 | 17.0 | 0.00 | 0.00 | 0.00 | 48 | 1016.1 |
| 20260509144011 | 53 | 360 | 6.0 | 12.0 | 0.00 | 0.00 | 0.00 | 47 | 1016.2 |
| 20260509143514 | 53 | 189 | 4.0 | 15.0 | 0.00 | 0.00 | 0.00 | 46 | 1016.1 |
| 20260509143030 | 53 | 176 | 8.0 | 15.0 | 0.00 | 0.00 | 0.00 | 44 | 1016.0 |
| 20260509142513 | 54 | 163 | 5.0 | 14.0 | 0.00 | 0.00 | 0.00 | 46 | 1015.9 |
| 20260509142014 | 54 | 192 | 5.0 | 14.0 | 0.00 | 0.00 | 0.00 | 46 | 1015.9 |
| 20260509141538 | 54 | 196 | 4.0 | 14.0 | 0.00 | 0.00 | 0.00 | 46 | 1015.9 |
| 20260509141014 | 53 | 219 | 4.0 | 13.0 | 0.00 | 0.00 | 0.00 | 45 | 1015.9 |
| 20260509140511 | 53 | 211 | 4.0 | 10.0 | 0.00 | 0.00 | 0.00 | 46 | 1015.8 |
| 20260509140030 | 53 | 209 | 4.0 | 9.0 | 0.00 | 0.00 | 0.00 | 47 | 1015.8 |
| 20260509135513 | 53 | 207 | 5.0 | 12.0 | 0.00 | 0.00 | 0.00 | 47 | 1015.9 |
| 20260509135014 | 53 | 216 | 6.0 | 12.0 | 0.00 | 0.00 | 0.00 | 47 | 1016.0 |
| 20260509134530 | 53 | 179 | 5.0 | 11.0 | 0.00 | 0.00 | 0.00 | 45 | 1015.9 |
| 20260509134011 | 53 | 360 | 5.0 | 12.0 | 0.00 | 0.00 | 0.00 | 47 | 1015.8 |
| 20260509133511 | 53 | 176 | 6.0 | 12.0 | 0.00 | 0.00 | 0.00 | 47 | 1015.9 |
| 20260509133032 | 53 | 196 | 6.0 | 17.0 | 0.00 | 0.00 | 0.00 | 47 | 1016.0 |
| 20260509132516 | 54 | 184 | 6.0 | 17.0 | 0.00 | 0.00 | 0.00 | 47 | 1016.0 |
| 20260509132013 | 54 | 221 | 6.0 | 14.0 | 0.00 | 0.00 | 0.00 | 46 | 1016.1 |
| 20260509131530 | 54 | 166 | 2.0 | 10.0 | 0.00 | 0.00 | 0.00 | 48 | 1016.0 |
| 20260509131014 | 54 | 0 | 3.0 | 10.0 | 0.00 | 0.00 | 0.00 | 49 | 1016.1 |
| 20260509130515 | 53 | 196 | 4.0 | 10.0 | 0.00 | 0.00 | 0.00 | 47 | 1016.2 |
| 20260509130030 | 53 | 189 | 3.0 | 14.0 | 0.00 | 0.00 | 0.00 | 48 | 1016.3 |
| 20260509125516 | 53 | 200 | 2.0 | 14.0 | 0.00 | 0.00 | 0.00 | 48 | 1016.2 |
| 20260509125016 | 53 | 360 | 4.0 | 11.0 | 0.00 | 0.00 | 0.00 | 48 | 1016.2 |
| 20260509124531 | 53 | 240 | 5.0 | 10.0 | 0.00 | 0.00 | 0.00 | 48 | 1016.2 |
| 20260509124011 | 52 | 163 | 0.0 | 7.0 | 0.00 | 0.00 | 0.00 | 52 | 1016.2 |
| 20260509123513 | 52 | 180 | 2.0 | 7.0 | 0.00 | 0.00 | 0.00 | 52 | 1016.2 |
| 20260509123030 | 52 | 231 | 4.0 | 7.0 | 0.00 | 0.00 | 0.00 | 51 | 1016.2 |
| 20260509122512 | 51 | 201 | 4.0 | 8.0 | 0.00 | 0.00 | 0.00 | 54 | 1016.3 |
| 20260509122014 | 51 | 178 | 3.0 | 8.0 | 0.00 | 0.00 | 0.00 | 53 | 1016.3 |
| 20260509121530 | 51 | 232 | 1.0 | 5.0 | 0.00 | 0.00 | 0.00 | 54 | 1016.3 |
| 20260509121015 | 50 | 202 | 1.0 | 5.0 | 0.00 | 0.00 | 0.00 | 57 | 1016.3 |
| 20260509120512 | 50 | 229 | 0.0 | 5.0 | 0.00 | 0.00 | 0.00 | 58 | 1016.4 |
| 20260509120030 | 49 | 234 | 3.0 | 5.0 | 0.00 | 0.00 | 0.00 | 56 | 1016.3 |
| 20260509115511 | 49 | 360 | 0.0 | 6.0 | 0.00 | 0.00 | 0.00 | 57 | 1016.2 |
| 20260509115012 | 48 | 360 | 1.0 | 6.0 | 0.00 | 0.00 | 0.00 | 58 | 1016.2 |
| 20260509114535 | 48 | 360 | 1.0 | 3.0 | 0.00 | 0.00 | 0.00 | 58 | 1016.3 |
| 20260509114012 | 48 | 0 | 0.0 | 3.0 | 0.00 | 0.00 | 0.00 | 60 | 1016.3 |
| 20260509113512 | 47 | 360 | 0.0 | 3.0 | 0.00 | 0.00 | 0.00 | 59 | 1016.3 |
| 20260509113030 | 47 | 360 | 0.0 | 3.0 | 0.00 | 0.00 | 0.00 | 59 | 1016.3 |
| 20260509112510 | 47 | 0 | 0.0 | 2.0 | 0.00 | 0.00 | 0.00 | 60 | 1016.3 |
| 20260509112014 | 46 | 0 | 0.0 | 3.0 | 0.00 | 0.00 | 0.00 | 60 | 1016.3 |
| 20260509111530 | 46 | 220 | 1.0 | 3.0 | 0.00 | 0.00 | 0.00 | 60 | 1016.3 |
| 20260509111013 | 46 | 221 | 1.0 | 4.0 | 0.00 | 0.00 | 0.00 | 61 | 1016.3 |
| 20260509110511 | 45 | 225 | 0.0 | 4.0 | 0.00 | 0.00 | 0.00 | 61 | 1016.4 |
| 20260509110030 | 45 | 230 | 1.0 | 4.0 | 0.00 | 0.00 | 0.00 | 62 | 1016.3 |
| 20260509105510 | 45 | 244 | 0.0 | 4.0 | 0.00 | 0.00 | 0.00 | 62 | 1016.3 |
| 20260509105013 | 44 | 254 | 1.0 | 3.0 | 0.00 | 0.00 | 0.00 | 63 | 1016.3 |
| 20260509104532 | 44 | 0 | 1.0 | 3.0 | 0.00 | 0.00 | 0.00 | 63 | 1016.2 |
| 20260509104011 | 44 | 255 | 1.0 | 4.0 | 0.00 | 0.00 | 0.00 | 63 | 1016.1 |
| 20260509103512 | 44 | 257 | 1.0 | 4.0 | 0.00 | 0.00 | 0.00 | 64 | 1016.0 |
| 20260509103035 | 44 | 255 | 2.0 | 4.0 | 0.00 | 0.00 | 0.00 | 64 | 1015.9 |
| 20260509102512 | 43 | 257 | 1.0 | 4.0 | 0.00 | 0.00 | 0.00 | 64 | 1015.8 |
| 20260509102011 | 43 | 257 | 2.0 | 4.0 | 0.00 | 0.00 | 0.00 | 65 | 1015.8 |
| 20260509101532 | 43 | 259 | 2.0 | 4.0 | 0.00 | 0.00 | 0.00 | 65 | 1015.7 |
| 20260509101011 | 43 | 291 | 2.0 | 3.0 | 0.00 | 0.00 | 0.00 | 64 | 1015.7 |
| 20260509100512 | 43 | 292 | 2.0 | 3.0 | 0.00 | 0.00 | 0.00 | 64 | 1015.6 |
| 20260509100031 | 43 | 292 | 1.0 | 3.0 | 0.00 | 0.00 | 0.00 | 64 | 1015.6 |
| 20260509095513 | 43 | 292 | 1.0 | 4.0 | 0.00 | 0.00 | 0.00 | 65 | 1015.4 |
| 20260509095017 | 43 | 292 | 2.0 | 4.0 | 0.00 | 0.00 | 0.00 | 65 | 1015.3 |
| 20260509094534 | 43 | 292 | 2.0 | 4.0 | 0.00 | 0.00 | 0.00 | 65 | 1015.3 |
| 20260509094011 | 43 | 292 | 2.0 | 3.0 | 0.00 | 0.00 | 0.00 | 65 | 1015.2 |
| 20260509093511 | 43 | 292 | 2.0 | 3.0 | 0.00 | 0.00 | 0.00 | 65 | 1015.1 |
| 20260509093032 | 43 | 292 | 2.0 | 4.0 | 0.00 | 0.00 | 0.00 | 65 | 1015.1 |
| 20260509092513 | 43 | 292 | 2.0 | 4.0 | 0.00 | 0.00 | 0.00 | 65 | 1015.1 |
| 20260509092011 | 43 | 292 | 2.0 | 4.0 | 0.00 | 0.00 | 0.00 | 65 | 1015.1 |
| 20260509091535 | 43 | 292 | 2.0 | 4.0 | 0.00 | 0.00 | 0.00 | 65 | 1014.9 |
| 20260509091013 | 43 | 292 | 3.0 | 4.0 | 0.00 | 0.00 | 0.00 | 65 | 1014.9 |
| 20260509090513 | 43 | 292 | 2.0 | 4.0 | 0.00 | 0.00 | 0.00 | 65 | 1014.8 |
| 20260509090037 | 43 | 291 | 3.0 | 4.0 | 0.00 | 0.00 | 0.00 | 65 | 1014.9 |
| 20260509085511 | 43 | 296 | 2.0 | 4.0 | 0.00 | 0.00 | 0.00 | 65 | 1014.9 |
| 20260509085013 | 43 | 303 | 3.0 | 4.0 | 0.00 | 0.00 | 0.00 | 65 | 1014.8 |
| 20260509084532 | 43 | 304 | 3.0 | 5.0 | 0.00 | 0.00 | 0.00 | 65 | 1014.7 |
| 20260509084011 | 43 | 302 | 3.0 | 5.0 | 0.00 | 0.00 | 0.00 | 65 | 1014.7 |
| 20260509083513 | 43 | 296 | 3.0 | 7.0 | 0.00 | 0.00 | 0.00 | 65 | 1014.8 |
| 20260509083030 | 43 | 284 | 4.0 | 7.0 | 0.00 | 0.00 | 0.00 | 65 | 1014.9 |
| 20260509082511 | 43 | 291 | 4.0 | 7.0 | 0.00 | 0.00 | 0.00 | 65 | 1014.9 |
| 20260509082012 | 43 | 290 | 3.0 | 6.0 | 0.00 | 0.00 | 0.00 | 64 | 1014.9 |
| 20260509081530 | 43 | 296 | 3.0 | 7.0 | 0.00 | 0.00 | 0.00 | 64 | 1015.0 |
| 20260509081012 | 43 | 296 | 4.0 | 7.0 | 0.00 | 0.00 | 0.00 | 64 | 1015.1 |
| 20260509080511 | 43 | 302 | 3.0 | 5.0 | 0.00 | 0.00 | 0.00 | 63 | 1015.1 |
| 20260509080035 | 43 | 300 | 3.0 | 5.0 | 0.00 | 0.00 | 0.00 | 63 | 1015.1 |
| 20260509075511 | 43 | 305 | 3.0 | 5.0 | 0.00 | 0.00 | 0.00 | 62 | 1015.2 |
| 20260509075016 | 43 | 298 | 3.0 | 5.0 | 0.00 | 0.00 | 0.00 | 61 | 1015.1 |
| 20260509074530 | 43 | 294 | 4.0 | 8.0 | 0.00 | 0.00 | 0.00 | 60 | 1015.1 |
| 20260509074011 | 44 | 308 | 3.0 | 8.0 | 0.00 | 0.00 | 0.00 | 60 | 1015.0 |
| 20260509073515 | 43 | 288 | 4.0 | 8.0 | 0.00 | 0.00 | 0.00 | 58 | 1015.0 |
| 20260509073038 | 43 | 295 | 3.0 | 7.0 | 0.00 | 0.00 | 0.00 | 57 | 1014.9 |
| 20260509072512 | 43 | 298 | 4.0 | 7.0 | 0.00 | 0.00 | 0.00 | 57 | 1014.9 |
| 20260509072011 | 43 | 300 | 4.0 | 7.0 | 0.00 | 0.00 | 0.00 | 57 | 1015.0 |
| 20260509071532 | 43 | 289 | 4.0 | 6.0 | 0.00 | 0.00 | 0.00 | 58 | 1014.9 |
| 20260509071011 | 43 | 281 | 4.0 | 6.0 | 0.00 | 0.00 | 0.00 | 59 | 1015.0 |
| 20260509070512 | 43 | 290 | 3.0 | 4.0 | 0.00 | 0.00 | 0.00 | 58 | 1015.0 |
| 20260509070032 | 44 | 294 | 2.0 | 5.0 | 0.00 | 0.00 | 0.00 | 58 | 1014.9 |
| 20260509065512 | 44 | 295 | 2.0 | 6.0 | 0.00 | 0.00 | 0.00 | 58 | 1014.9 |
| 20260509065011 | 44 | 290 | 3.0 | 6.0 | 0.00 | 0.00 | 0.00 | 58 | 1014.8 |
| 20260509064532 | 44 | 279 | 3.0 | 6.0 | 0.00 | 0.00 | 0.00 | 58 | 1014.9 |
| 20260509064016 | 44 | 281 | 2.0 | 4.0 | 0.00 | 0.00 | 0.00 | 58 | 1014.9 |
| 20260509063514 | 44 | 277 | 2.0 | 6.0 | 0.00 | 0.00 | 0.00 | 58 | 1015.0 |
| 20260509063036 | 44 | 283 | 2.0 | 6.0 | 0.00 | 0.00 | 0.00 | 57 | 1014.9 |
| 20260509062511 | 44 | 281 | 2.0 | 4.0 | 0.00 | 0.00 | 0.00 | 57 | 1014.9 |
| 20260509062014 | 45 | 276 | 2.0 | 4.0 | 0.00 | 0.00 | 0.00 | 56 | 1014.8 |
| 20260509061533 | 45 | 277 | 1.0 | 4.0 | 0.00 | 0.00 | 0.00 | 55 | 1014.8 |
| 20260509061012 | 45 | 276 | 2.0 | 4.0 | 0.00 | 0.00 | 0.00 | 55 | 1014.8 |
| 20260509060513 | 45 | 277 | 2.0 | 4.0 | 0.00 | 0.00 | 0.00 | 54 | 1014.7 |
| 20260509060029 | 45 | 277 | 2.0 | 4.0 | 0.00 | 0.00 | 0.00 | 53 | 1014.6 |
| 20260509055513 | 45 | 279 | 2.0 | 4.0 | 0.00 | 0.00 | 0.00 | 53 | 1014.7 |
| 20260509055011 | 45 | 0 | 1.0 | 4.0 | 0.00 | 0.00 | 0.00 | 52 | 1014.7 |
| 20260509054535 | 45 | 272 | 2.0 | 4.0 | 0.00 | 0.00 | 0.00 | 51 | 1014.6 |
| 20260509054013 | 45 | 275 | 2.0 | 4.0 | 0.00 | 0.00 | 0.00 | 50 | 1014.6 |
| 20260509053513 | 46 | 276 | 2.0 | 4.0 | 0.00 | 0.00 | 0.00 | 50 | 1014.6 |
| 20260509053048 | 46 | 275 | 2.0 | 4.0 | 0.00 | 0.00 | 0.00 | 51 | 1014.6 |
| 20260509052511 | 46 | 273 | 2.0 | 3.0 | 0.00 | 0.00 | 0.00 | 51 | 1014.6 |
| 20260509052015 | 46 | 273 | 2.0 | 3.0 | 0.00 | 0.00 | 0.00 | 51 | 1014.6 |
| 20260509051530 | 46 | 0 | 0.0 | 0.0 | 0.00 | 0.00 | 0.00 | 51 | 1014.5 |
| 20260509051011 | 46 | 0 | 0.0 | 0.0 | 0.00 | 0.00 | 0.00 | 51 | 1014.6 |
| 20260509050511 | 46 | 0 | 0.0 | 0.0 | 0.00 | 0.00 | 0.00 | 51 | 1014.6 |
| 20260509050029 | 46 | 0 | 0.0 | 0.0 | 0.00 | 0.00 | 0.00 | 52 | 1014.6 |
| 20260509045514 | 46 | 0 | 0.0 | 2.0 | 0.00 | 0.00 | 0.00 | 52 | 1014.6 |
| 20260509045011 | 46 | 0 | 0.0 | 2.0 | 0.00 | 0.00 | 0.00 | 52 | 1014.6 |
| 20260509044530 | 46 | 271 | 1.0 | 2.0 | 0.00 | 0.00 | 0.00 | 51 | 1014.6 |
| 20260509044015 | 46 | 271 | 1.0 | 2.0 | 0.00 | 0.00 | 0.00 | 51 | 1014.6 |
| 20260509043513 | 46 | 0 | 0.0 | 2.0 | 0.00 | 0.00 | 0.00 | 52 | 1014.6 |
| 20260509043040 | 46 | 0 | 0.0 | 2.0 | 0.00 | 0.00 | 0.00 | 51 | 1014.6 |
| 20260509042511 | 46 | 0 | 0.0 | 3.0 | 0.00 | 0.00 | 0.00 | 51 | 1014.6 |
| 20260509042013 | 46 | 271 | 1.0 | 3.0 | 0.00 | 0.00 | 0.00 | 52 | 1014.6 |
| 20260509041530 | 46 | 271 | 2.0 | 3.0 | 0.00 | 0.00 | 0.00 | 51 | 1014.5 |
| 20260509041013 | 46 | 271 | 1.0 | 3.0 | 0.00 | 0.00 | 0.00 | 51 | 1014.6 |
| 20260509040511 | 46 | 271 | 1.0 | 3.0 | 0.00 | 0.00 | 0.00 | 52 | 1014.5 |
| 20260509040029 | 46 | 275 | 1.0 | 3.0 | 0.00 | 0.00 | 0.00 | 51 | 1014.4 |
| 20260509035514 | 46 | 277 | 1.0 | 3.0 | 0.00 | 0.00 | 0.00 | 51 | 1014.4 |
| 20260509035017 | 46 | 0 | 0.0 | 3.0 | 0.00 | 0.00 | 0.00 | 50 | 1014.3 |
| 20260509034530 | 46 | 0 | 0.0 | 3.0 | 0.00 | 0.00 | 0.00 | 50 | 1014.1 |
| 20260509034014 | 46 | 0 | 1.0 | 3.0 | 0.00 | 0.00 | 0.00 | 50 | 1014.1 |
| 20260509033515 | 46 | 0 | 0.0 | 3.0 | 0.00 | 0.00 | 0.00 | 50 | 1014.1 |
| 20260509033030 | 46 | 284 | 1.0 | 4.0 | 0.00 | 0.00 | 0.00 | 50 | 1014.1 |
| 20260509032511 | 46 | 290 | 1.0 | 4.0 | 0.00 | 0.00 | 0.00 | 50 | 1014.1 |
| 20260509032014 | 46 | 293 | 1.0 | 4.0 | 0.00 | 0.00 | 0.00 | 49 | 1014.1 |
| 20260509031531 | 46 | 5 | 1.0 | 3.0 | 0.00 | 0.00 | 0.00 | 50 | 1014.0 |
| 20260509031014 | 46 | 5 | 1.0 | 3.0 | 0.00 | 0.00 | 0.00 | 49 | 1013.9 |
| 20260509030516 | 46 | 51 | 2.0 | 3.0 | 0.00 | 0.00 | 0.00 | 48 | 1013.9 |
| 20260509030030 | 46 | 51 | 2.0 | 3.0 | 0.00 | 0.00 | 0.00 | 49 | 1013.9 |
| 20260509025514 | 47 | 51 | 2.0 | 3.0 | 0.00 | 0.00 | 0.00 | 49 | 1013.8 |
| 20260509025014 | 47 | 52 | 2.0 | 3.0 | 0.00 | 0.00 | 0.00 | 49 | 1013.8 |
| 20260509024530 | 47 | 0 | 0.0 | 2.0 | 0.00 | 0.00 | 0.00 | 49 | 1013.7 |
| 20260509024011 | 47 | 0 | 0.0 | 2.0 | 0.00 | 0.00 | 0.00 | 51 | 1013.7 |
| 20260509023511 | 47 | 0 | 0.0 | 2.0 | 0.00 | 0.00 | 0.00 | 49 | 1013.6 |
| 20260509023030 | 47 | 0 | 0.0 | 3.0 | 0.00 | 0.00 | 0.00 | 49 | 1013.6 |
| 20260509022512 | 47 | 51 | 0.0 | 4.0 | 0.00 | 0.00 | 0.00 | 49 | 1013.6 |
| 20260509022011 | 46 | 51 | 2.0 | 4.0 | 0.00 | 0.00 | 0.00 | 51 | 1013.5 |
| 20260509021532 | 46 | 51 | 2.0 | 4.0 | 0.00 | 0.00 | 0.00 | 51 | 1013.4 |
| 20260509021012 | 46 | 50 | 3.0 | 4.0 | 0.00 | 0.00 | 0.00 | 49 | 1013.4 |
| 20260509020511 | 46 | 49 | 3.0 | 5.0 | 0.00 | 0.00 | 0.00 | 51 | 1013.3 |
| 20260509020029 | 46 | 49 | 3.0 | 5.0 | 0.00 | 0.00 | 0.00 | 50 | 1013.2 |
| 20260509015514 | 46 | 41 | 3.0 | 5.0 | 0.00 | 0.00 | 0.00 | 51 | 1013.2 |
| 20260509015011 | 46 | 41 | 2.0 | 4.0 | 0.00 | 0.00 | 0.00 | 52 | 1013.1 |
| 20260509014532 | 46 | 32 | 2.0 | 5.0 | 0.00 | 0.00 | 0.00 | 52 | 1013.1 |
| 20260509014011 | 45 | 5 | 3.0 | 5.0 | 0.00 | 0.00 | 0.00 | 51 | 1012.9 |
| 20260509013514 | 45 | 355 | 3.0 | 5.0 | 0.00 | 0.00 | 0.00 | 52 | 1012.8 |
| 20260509013032 | 44 | 355 | 4.0 | 5.0 | 0.00 | 0.00 | 0.00 | 55 | 1012.7 |
| 20260509012511 | 44 | 360 | 3.0 | 5.0 | 0.00 | 0.00 | 0.00 | 54 | 1012.7 |
| 20260509012013 | 44 | 360 | 3.0 | 6.0 | 0.00 | 0.00 | 0.00 | 54 | 1012.5 |
| 20260509011531 | 45 | 341 | 3.0 | 6.0 | 0.00 | 0.00 | 0.00 | 54 | 1012.5 |
| 20260509011015 | 45 | 326 | 3.0 | 6.0 | 0.00 | 0.00 | 0.00 | 51 | 1012.5 |
| 20260509010512 | 45 | 331 | 4.0 | 6.0 | 0.00 | 0.00 | 0.00 | 50 | 1012.4 |
| 20260509010035 | 45 | 327 | 3.0 | 5.0 | 0.00 | 0.00 | 0.00 | 50 | 1012.3 |
| 20260509005514 | 45 | 332 | 3.0 | 6.0 | 0.00 | 0.00 | 0.00 | 51 | 1012.2 |
| 20260509005012 | 46 | 325 | 4.0 | 6.0 | 0.00 | 0.00 | 0.00 | 49 | 1012.1 |
| 20260509004532 | 46 | 319 | 4.0 | 6.0 | 0.00 | 0.00 | 0.00 | 49 | 1012.0 |
| 20260509004010 | 46 | 319 | 4.0 | 6.0 | 0.00 | 0.00 | 0.00 | 49 | 1011.9 |
| 20260509003512 | 46 | 325 | 4.0 | 6.0 | 0.00 | 0.00 | 0.00 | 48 | 1011.8 |
| 20260509003033 | 47 | 330 | 4.0 | 6.0 | 0.00 | 0.00 | 0.00 | 49 | 1011.7 |
| 20260509002512 | 47 | 327 | 4.0 | 8.0 | 0.00 | 0.00 | 0.00 | 48 | 1011.7 |
| 20260509002011 | 47 | 344 | 4.0 | 8.0 | 0.00 | 0.00 | 0.00 | 48 | 1011.6 |
| 20260509001533 | 48 | 325 | 4.0 | 8.0 | 0.00 | 0.00 | 0.00 | 46 | 1011.6 |
| 20260509001012 | 48 | 324 | 3.0 | 11.0 | 0.00 | 0.00 | 0.00 | 45 | 1011.6 |
| 20260509000512 | 48 | 310 | 4.0 | 11.0 | 0.00 | 0.00 | 0.00 | 45 | 1011.5 |
| 20260509000031 | 49 | 321 | 4.0 | 10.0 | 0.00 | 0.00 | 0.00 | 45 | 1011.5 |
| 20260508235511 | 49 | 319 | 4.0 | 10.0 | 0.00 | 0.00 | 0.00 | 44 | 1011.4 |
| 20260508235012 | 49 | 329 | 5.0 | 11.0 | 0.00 | 0.00 | 0.00 | 44 | 1011.4 |
| 20260508234531 | 49 | 319 | 4.0 | 11.0 | 0.00 | 0.00 | 0.00 | 44 | 1011.4 |
| 20260508234010 | 50 | 304 | 6.0 | 11.0 | 0.00 | 0.00 | 0.00 | 44 | 1011.3 |
| 20260508233512 | 50 | 331 | 5.0 | 11.0 | 0.00 | 0.00 | 0.00 | 42 | 1011.2 |
| 20260508233035 | 50 | 297 | 3.0 | 14.0 | 0.00 | 0.00 | 0.00 | 43 | 1011.1 |
| 20260508232512 | 51 | 321 | 9.0 | 14.0 | 0.00 | 0.00 | 0.00 | 41 | 1011.0 |
| 20260508232011 | 51 | 311 | 6.0 | 16.0 | 0.00 | 0.00 | 0.00 | 42 | 1010.9 |
| 20260508231530 | 51 | 296 | 8.0 | 17.0 | 0.00 | 0.00 | 0.00 | 42 | 1010.9 |
| 20260508231013 | 51 | 317 | 10.0 | 19.0 | 0.00 | 0.00 | 0.00 | 40 | 1010.9 |
| 20260508230514 | 52 | 313 | 11.0 | 22.0 | 0.00 | 0.00 | 0.00 | 40 | 1010.9 |
| 20260508230031 | 52 | 314 | 11.0 | 22.0 | 0.00 | 0.00 | 0.00 | 40 | 1010.8 |
| 20260508225512 | 52 | 319 | 8.0 | 17.0 | 0.00 | 0.00 | 0.00 | 40 | 1010.8 |
| 20260508225016 | 53 | 345 | 8.0 | 17.0 | 0.00 | 0.00 | 0.00 | 40 | 1010.8 |
| 20260508224535 | 53 | 313 | 9.0 | 17.0 | 0.00 | 0.00 | 0.00 | 40 | 1010.8 |
| 20260508224016 | 53 | 298 | 7.0 | 18.0 | 0.00 | 0.00 | 0.00 | 42 | 1010.8 |
| 20260508223515 | 53 | 294 | 8.0 | 18.0 | 0.00 | 0.00 | 0.00 | 40 | 1010.8 |
| 20260508223033 | 53 | 277 | 6.0 | 25.0 | 0.00 | 0.00 | 0.00 | 39 | 1010.6 |
| 20260508222514 | 53 | 301 | 10.0 | 26.0 | 0.00 | 0.00 | 0.00 | 39 | 1010.5 |
| 20260508222012 | 53 | 315 | 10.0 | 26.0 | 0.00 | 0.00 | 0.00 | 40 | 1010.6 |
| 20260508221528 | 53 | 342 | 4.0 | 14.0 | 0.00 | 0.00 | 0.00 | 40 | 1010.4 |
| 20260508221012 | 53 | 296 | 9.0 | 19.0 | 0.00 | 0.00 | 0.00 | 41 | 1010.6 |
| 20260508220511 | 54 | 286 | 6.0 | 19.0 | 0.00 | 0.00 | 0.00 | 39 | 1010.4 |
| 20260508220030 | 54 | 268 | 8.0 | 19.0 | 0.00 | 0.00 | 0.00 | 37 | 1010.4 |
| 20260508215515 | 54 | 273 | 8.0 | 22.0 | 0.00 | 0.00 | 0.00 | 40 | 1010.4 |
| 20260508215010 | 53 | 322 | 9.0 | 24.0 | 0.00 | 0.00 | 0.00 | 39 | 1010.3 |
| 20260508214534 | 53 | 283 | 11.0 | 24.0 | 0.00 | 0.00 | 0.00 | 40 | 1010.4 |
| 20260508214012 | 54 | 351 | 13.0 | 20.0 | 0.00 | 0.00 | 0.00 | 38 | 1010.2 |
| 20260508213510 | 54 | 318 | 9.0 | 19.0 | 0.00 | 0.00 | 0.00 | 39 | 1010.3 |
| 20260508213032 | 54 | 293 | 8.0 | 18.0 | 0.00 | 0.00 | 0.00 | 40 | 1010.3 |
| 20260508212512 | 54 | 285 | 9.0 | 21.0 | 0.00 | 0.00 | 0.00 | 39 | 1010.3 |
| 20260508212014 | 54 | 331 | 11.0 | 21.0 | 0.00 | 0.00 | 0.00 | 39 | 1010.2 |
| 20260508211531 | 54 | 298 | 10.0 | 22.0 | 0.00 | 0.00 | 0.00 | 41 | 1010.2 |
| 20260508211012 | 54 | 297 | 8.0 | 22.0 | 0.00 | 0.00 | 0.00 | 39 | 1010.1 |
| 20260508210511 | 54 | 309 | 13.0 | 22.0 | 0.00 | 0.00 | 0.00 | 39 | 1010.1 |
| 20260508210034 | 55 | 297 | 10.0 | 20.0 | 0.00 | 0.00 | 0.00 | 38 | 1009.9 |
| 20260508205512 | 55 | 272 | 9.0 | 19.0 | 0.00 | 0.00 | 0.00 | 40 | 1010.0 |
| 20260508205012 | 54 | 293 | 8.0 | 15.0 | 0.00 | 0.00 | 0.00 | 39 | 1010.0 |
| 20260508204536 | 54 | 281 | 8.0 | 23.0 | 0.00 | 0.00 | 0.00 | 39 | 1009.9 |
| 20260508204011 | 54 | 297 | 9.0 | 25.0 | 0.00 | 0.00 | 0.00 | 38 | 1009.9 |
| 20260508203510 | 55 | 290 | 13.0 | 25.0 | 0.00 | 0.00 | 0.00 | 40 | 1009.8 |
| 20260508203034 | 54 | 341 | 7.0 | 23.0 | 0.00 | 0.00 | 0.00 | 44 | 1009.8 |
| 20260508202513 | 55 | 334 | 12.0 | 23.0 | 0.00 | 0.00 | 0.00 | 38 | 1009.8 |
| 20260508202015 | 55 | 301 | 14.0 | 23.0 | 0.00 | 0.00 | 0.00 | 37 | 1009.7 |
| 20260508201531 | 55 | 316 | 10.0 | 23.0 | 0.00 | 0.00 | 0.00 | 40 | 1009.6 |
| 20260508201011 | 55 | 313 | 12.0 | 25.0 | 0.00 | 0.00 | 0.00 | 40 | 1009.6 |
| 20260508200513 | 55 | 288 | 11.0 | 25.0 | 0.00 | 0.00 | 0.00 | 38 | 1009.7 |
| 20260508200032 | 55 | 311 | 9.0 | 24.0 | 0.00 | 0.00 | 0.00 | 38 | 1009.6 |
| 20260508195511 | 55 | 329 | 14.0 | 29.0 | 0.00 | 0.00 | 0.00 | 39 | 1009.6 |
| 20260508195011 | 56 | 261 | 16.0 | 29.0 | 0.00 | 0.00 | 0.00 | 38 | 1009.6 |
| 20260508194528 | 56 | 319 | 12.0 | 26.0 | 0.00 | 0.00 | 0.00 | 41 | 1009.6 |
| 20260508194012 | 56 | 271 | 13.0 | 26.0 | 0.00 | 0.00 | 0.00 | 40 | 1009.4 |
| 20260508193512 | 55 | 279 | 14.0 | 27.0 | 0.00 | 0.00 | 0.00 | 41 | 1009.5 |
| 20260508193029 | 55 | 270 | 14.0 | 27.0 | 0.00 | 0.00 | 0.00 | 39 | 1009.5 |
| 20260508192511 | 56 | 274 | 13.0 | 25.0 | 0.00 | 0.00 | 0.00 | 42 | 1009.5 |
| 20260508192015 | 54 | 319 | 13.0 | 25.0 | 0.00 | 0.00 | 0.00 | 45 | 1009.3 |
| 20260508191535 | 54 | 246 | 8.0 | 22.0 | 0.00 | 0.00 | 0.00 | 45 | 1009.5 |
| 20260508191012 | 53 | 303 | 11.0 | 24.0 | 0.00 | 0.00 | 0.00 | 44 | 1009.4 |
| 20260508190514 | 53 | 302 | 11.0 | 27.0 | 0.00 | 0.00 | 0.00 | 44 | 1009.4 |
| 20260508190035 | 54 | 320 | 12.0 | 30.0 | 0.00 | 0.00 | 0.00 | 44 | 1009.3 |
| 20260508185514 | 54 | 293 | 15.0 | 30.0 | 0.00 | 0.00 | 0.00 | 43 | 1009.4 |
| 20260508185013 | 54 | 321 | 14.0 | 27.0 | 0.00 | 0.00 | 0.00 | 41 | 1009.2 |
| 20260508184530 | 55 | 292 | 12.0 | 27.0 | 0.00 | 0.00 | 0.00 | 44 | 1009.3 |
| 20260508184010 | 55 | 320 | 14.0 | 27.0 | 0.00 | 0.00 | 0.00 | 41 | 1009.2 |
| 20260508183511 | 55 | 259 | 11.0 | 27.0 | 0.00 | 0.00 | 0.00 | 38 | 1009.2 |
| 20260508183029 | 56 | 258 | 14.0 | 27.0 | 0.00 | 0.00 | 0.00 | 38 | 1009.1 |
| 20260508182514 | 56 | 291 | 10.0 | 25.0 | 0.00 | 0.00 | 0.00 | 41 | 1009.2 |
| 20260508182015 | 56 | 307 | 12.0 | 25.0 | 0.00 | 0.00 | 0.00 | 38 | 1009.0 |
| 20260508181540 | 56 | 244 | 7.0 | 24.0 | 0.00 | 0.00 | 0.00 | 41 | 1009.1 |
| 20260508181013 | 55 | 325 | 15.0 | 24.0 | 0.00 | 0.00 | 0.00 | 37 | 1009.1 |
| 20260508180514 | 55 | 254 | 14.0 | 24.0 | 0.00 | 0.00 | 0.00 | 37 | 1009.0 |
| 20260508180032 | 56 | 350 | 10.0 | 21.0 | 0.00 | 0.00 | 0.00 | 36 | 1009.1 |
| 20260508175513 | 56 | 254 | 11.0 | 22.0 | 0.00 | 0.00 | 0.00 | 35 | 1009.0 |